EW5196 Weather Reports


Display with metric or nautical units.
time (UTC)temp
F
wind
direction
speed
MPH
gust
MPH
rain 1hr
in
rain 24hr
in
rain mn
in
humidity
%
barometer
mb
20260507164112 56 207 1.0 4.0 0.00 0.02 0.02 77 1013.4
20260507163609 56 165 2.0 4.0 0.00 0.02 0.02 79 1013.5
20260507163107 56 139 1.0 3.0 0.00 0.02 0.02 81 1013.5
20260507162602 56 117 3.0 3.0 0.00 0.02 0.02 84 1013.6
20260507162059 55 168 5.0 5.0 0.00 0.02 0.02 85 1013.4
20260507161555 55 192 4.0 4.0 0.00 0.02 0.02 83 1013.4
20260507161052 55 132 1.0 6.0 0.00 0.02 0.02 85 1013.8
20260507160548 55 167 2.0 4.0 0.00 0.02 0.02 87 1013.6
20260507160044 55 178 4.0 5.0 0.00 0.02 0.02 88 1013.8
20260507155540 55 216 3.0 4.0 0.00 0.02 0.02 88 1013.9
20260507155037 55 171 3.0 5.0 0.00 0.02 0.02 88 1013.8
20260507154534 55 138 2.0 2.0 0.00 0.02 0.02 87 1013.7
20260507154026 55 202 3.0 4.0 0.02 0.02 0.02 87 1013.5
20260507153522 56 134 2.0 4.0 0.05 0.02 0.02 85 1013.8
20260507153018 56 179 2.0 4.0 0.02 0.02 0.02 83 1013.7
20260507152513 56 142 2.0 5.0 0.00 0.02 0.02 80 1013.9
20260507152010 56 226 0.0 7.0 0.00 0.02 0.02 79 1013.8
20260507151507 56 140 2.0 3.0 0.00 0.02 0.02 80 1013.7
20260507151004 56 131 3.0 3.0 0.00 0.02 0.02 80 1013.3
20260507150501 56 219 2.0 6.0 0.00 0.02 0.02 79 1013.6
20260507145957 57 156 3.0 4.0 0.00 0.02 0.02 78 1013.5
20260507145453 57 171 2.0 5.0 0.00 0.02 0.02 76 1013.5
20260507144950 57 147 0.0 4.0 0.00 0.02 0.02 76 1013.9
20260507144447 57 147 2.0 3.0 0.00 0.02 0.02 76 1013.6
20260507143944 57 148 2.0 6.0 0.00 0.02 0.02 77 1013.4
20260507143442 57 119 0.0 4.0 0.00 0.02 0.02 77 1013.1
20260507142938 57 142 2.0 3.0 0.00 0.02 0.02 78 1013.6
20260507142434 57 150 2.0 2.0 0.00 0.02 0.02 80 1013.7
20260507141931 57 140 2.0 2.0 0.00 0.02 0.02 81 1013.7
20260507141427 57 191 1.0 4.0 0.00 0.02 0.02 80 1013.9
20260507140924 58 164 2.0 5.0 0.00 0.02 0.02 80 1013.7
20260507140420 58 170 3.0 4.0 0.00 0.02 0.02 79 1013.9
20260507135919 58 158 2.0 3.0 0.00 0.02 0.02 79 1013.7
20260507135415 58 159 4.0 6.0 0.00 0.02 0.02 79 1013.9
20260507134912 58 197 0.0 5.0 0.00 0.02 0.02 80 1013.8
20260507134408 58 174 2.0 4.0 0.00 0.02 0.02 80 1014.0
20260507133904 58 162 1.0 6.0 0.00 0.02 0.02 81 1013.8
20260507133400 58 205 2.0 6.0 0.00 0.02 0.02 81 1013.6
20260507132859 58 162 2.0 4.0 0.00 0.02 0.02 83 1013.7
20260507132355 58 166 3.0 5.0 0.00 0.02 0.02 83 1013.3
20260507131852 58 163 2.0 4.0 0.00 0.02 0.02 84 1013.6
20260507131349 57 156 3.0 3.0 0.00 0.02 0.02 83 1013.3
20260507130846 58 209 1.0 6.0 0.00 0.02 0.02 83 1013.6
20260507130343 58 146 2.0 5.0 0.00 0.02 0.02 83 1013.6
20260507125842 58 150 2.0 2.0 0.00 0.02 0.02 83 1013.4
20260507125339 58 214 3.0 5.0 0.00 0.02 0.02 81 1013.8
20260507124837 58 152 3.0 3.0 0.00 0.02 0.02 82 1013.6
20260507124332 58 165 2.0 7.0 0.00 0.02 0.02 83 1013.6
20260507123831 57 143 1.0 5.0 0.00 0.02 0.02 82 1013.8
20260507123328 57 169 1.0 4.0 0.00 0.02 0.02 83 1013.5
20260507122824 57 136 3.0 4.0 0.00 0.02 0.02 83 1013.7
20260507122319 57 176 4.0 4.0 0.00 0.02 0.02 83 1013.7
20260507121816 57 179 3.0 4.0 0.00 0.02 0.02 83 1013.6
20260507121312 57 172 5.0 5.0 0.00 0.02 0.02 83 1013.5
20260507120809 57 185 4.0 6.0 0.00 0.02 0.02 83 1013.6
20260507120305 57 191 2.0 3.0 0.00 0.02 0.02 83 1013.3
20260507115801 57 155 2.0 3.0 0.00 0.02 0.02 83 1013.2
20260507115256 57 163 3.0 3.0 0.00 0.02 0.02 83 1013.8
20260507114753 57 148 1.0 3.0 0.00 0.02 0.02 82 1013.6
20260507114250 57 215 2.0 2.0 0.00 0.02 0.02 82 1013.8
20260507113748 57 229 3.0 3.0 0.00 0.02 0.02 82 1013.4
20260507113244 57 153 2.0 2.0 0.00 0.02 0.02 82 1013.8
20260507112742 57 200 2.0 4.0 0.00 0.02 0.02 82 1013.4
20260507112238 57 175 2.0 3.0 0.00 0.02 0.02 82 1013.3
20260507111737 57 133 2.0 4.0 0.00 0.02 0.02 81 1012.9
20260507111233 57 166 2.0 3.0 0.00 0.02 0.02 81 1012.8
20260507110729 57 169 2.0 3.0 0.00 0.02 0.02 81 1013.0
20260507110226 57 178 2.0 3.0 0.00 0.02 0.02 81 1013.1
20260507105722 57 146 1.0 6.0 0.00 0.02 0.02 80 1013.2
20260507105219 57 170 2.0 5.0 0.00 0.02 0.02 81 1012.9
20260507104716 57 145 2.0 2.0 0.00 0.02 0.02 80 1012.8
20260507104213 57 175 2.0 6.0 0.00 0.02 0.02 79 1012.8
20260507103708 57 208 1.0 4.0 0.00 0.02 0.02 80 1012.8
20260507103205 57 163 2.0 4.0 0.00 0.02 0.02 80 1012.8
20260507102701 57 163 3.0 4.0 0.00 0.02 0.02 79 1012.8
20260507102158 57 168 2.0 4.0 0.00 0.02 0.02 80 1012.6
20260507101654 57 152 2.0 6.0 0.00 0.02 0.02 80 1012.2
20260507101149 57 169 1.0 6.0 0.00 0.02 0.02 81 1012.0
20260507100647 57 186 6.0 6.0 0.00 0.02 0.02 83 1012.3
20260507100145 57 166 2.0 3.0 0.00 0.02 0.02 84 1012.7
20260507095643 57 154 0.0 3.0 0.00 0.02 0.02 85 1012.7
20260507095139 57 171 2.0 9.0 0.00 0.02 0.02 86 1013.1
20260507094636 57 160 2.0 6.0 0.00 0.02 0.02 88 1012.9
20260507094132 57 149 2.0 4.0 0.00 0.02 0.02 88 1012.6
20260507093630 57 173 0.0 3.0 0.00 0.02 0.02 88 1012.7
20260507093129 57 171 2.0 4.0 0.00 0.02 0.02 88 1012.9
20260507092625 57 144 2.0 3.0 0.00 0.02 0.02 90 1012.9
20260507092121 57 156 2.0 3.0 0.00 0.02 0.02 89 1012.7
20260507091618 57 162 1.0 3.0 0.00 0.02 0.02 89 1012.5
20260507091114 57 100 2.0 4.0 0.00 0.02 0.02 90 1012.4
20260507090610 57 216 1.0 5.0 0.02 0.02 0.02 89 1012.3
20260507090108 58 186 3.0 5.0 0.02 0.02 0.02 90 1012.4
20260507085604 58 134 4.0 8.0 0.02 0.01 0.01 88 1012.5
20260507085101 58 158 2.0 10.0 0.05 0.01 0.01 87 1012.1
20260507084558 59 137 3.0 3.0 0.05 0.01 0.01 90 1012.4
20260507084055 59 156 2.0 5.0 0.02 0.00 0.00 89 1012.1
20260507083551 60 179 3.0 5.0 0.00 0.00 0.00 89 1012.0
20260507083048 60 161 5.0 8.0 0.00 0.00 0.00 88 1012.1
20260507082544 61 241 2.0 7.0 0.00 0.00 0.00 88 1012.1
20260507082041 62 199 2.0 8.0 0.00 0.00 0.00 88 1012.0
20260507081537 62 179 6.0 6.0 0.00 0.00 0.00 87 1012.2
20260507081034 64 293 3.0 6.0 0.00 0.00 0.00 87 1011.8
20260507080530 65 193 3.0 5.0 0.00 0.00 0.00 89 1011.8
20260507080027 66 160 2.0 5.0 0.00 0.00 0.00 92 1011.5
20260507075522 66 178 2.0 3.0 0.00 0.00 0.00 92 1011.3
20260507075019 66 167 3.0 3.0 0.00 0.00 0.00 92 1011.2
20260507074515 66 179 2.0 3.0 0.00 0.00 0.00 92 1010.5
20260507074014 66 174 2.0 2.0 0.00 0.00 0.00 92 1011.0
20260507073510 66 170 2.0 3.0 0.00 0.00 0.00 92 1011.2
20260507073006 66 162 2.0 2.0 0.00 0.00 0.00 92 1011.1
20260507072504 66 162 2.0 3.0 0.00 0.00 0.00 92 1011.2
20260507072001 66 167 1.0 2.0 0.00 0.00 0.00 91 1011.2
20260507071458 66 189 2.0 2.0 0.00 0.00 0.00 91 1011.3
20260507070954 66 178 2.0 2.0 0.00 0.00 0.00 91 1011.3
20260507070452 67 174 3.0 3.0 0.00 0.00 0.00 91 1011.3
20260507065948 67 180 2.0 3.0 0.00 0.00 0.00 91 1011.1
20260507065445 67 167 2.0 2.0 0.00 0.00 0.00 90 1010.9
20260507064942 67 156 2.0 2.0 0.00 0.00 0.00 90 1010.9
20260507064440 67 166 2.0 3.0 0.00 0.00 0.00 89 1010.8
20260507063938 67 146 1.0 2.0 0.00 0.00 0.00 89 1010.4
20260507063434 67 144 1.0 2.0 0.00 0.00 0.00 89 1010.6
20260507062931 67 158 2.0 3.0 0.00 0.00 0.00 89 1010.4
20260507062429 67 157 2.0 2.0 0.00 0.00 0.00 88 1010.5
20260507061926 67 153 2.0 3.0 0.00 0.00 0.00 89 1010.1
20260507061424 67 161 2.0 2.0 0.00 0.00 0.00 89 1010.2
20260507060923 67 156 2.0 2.0 0.00 0.00 0.00 89 1010.2
20260507060419 67 158 2.0 2.0 0.00 0.00 0.00 88 1010.1
20260507055916 67 159 2.0 2.0 0.00 0.00 0.00 88 1010.1
20260507055410 67 165 2.0 2.0 0.00 0.00 0.00 88 1010.4
20260507054908 67 165 2.0 2.0 0.00 0.00 0.00 88 1010.2
20260507054404 67 158 2.0 2.0 0.00 0.00 0.00 88 1010.4
20260507053901 67 145 2.0 2.0 0.00 0.00 0.00 88 1010.3
20260507053353 67 119 1.0 2.0 0.00 0.00 0.00 88 1010.2
20260507052852 67 167 1.0 2.0 0.00 0.00 0.00 88 1010.4
20260507052348 67 161 1.0 2.0 0.00 0.00 0.00 88 1010.4
20260507051846 67 138 2.0 2.0 0.00 0.00 0.00 88 1010.6
20260507051343 67 151 1.0 2.0 0.00 0.00 0.00 88 1010.9
20260507050839 67 162 1.0 2.0 0.00 0.00 0.00 88 1010.8
20260507050336 67 170 2.0 2.0 0.00 0.00 0.00 88 1011.0
20260507045833 67 141 2.0 2.0 0.00 0.00 0.00 88 1011.5
20260507045329 67 151 1.0 2.0 0.00 0.00 0.00 88 1011.3
20260507044827 67 162 1.0 2.0 0.00 0.00 0.00 88 1011.4
20260507044324 67 153 2.0 2.0 0.00 0.00 0.00 88 1011.4
20260507043819 67 116 1.0 2.0 0.00 0.00 0.00 88 1011.6
20260507043316 67 144 2.0 2.0 0.00 0.00 0.00 88 1011.4
20260507042812 67 159 2.0 2.0 0.00 0.00 0.00 88 1011.5
20260507042308 67 157 2.0 2.0 0.00 0.00 0.00 88 1011.8
20260507041805 67 162 2.0 3.0 0.00 0.00 0.00 88 1011.7
20260507041302 67 151 2.0 2.0 0.00 0.00 0.00 88 1011.7
20260507040759 67 146 2.0 2.0 0.00 0.00 0.00 87 1011.2
20260507040255 67 134 1.0 2.0 0.00 0.00 0.00 87 1011.0
20260507035751 67 174 2.0 3.0 0.00 0.07 0.07 87 1011.2
20260507035246 67 152 2.0 2.0 0.00 0.07 0.07 88 1011.4
20260507034745 67 128 1.0 2.0 0.00 0.07 0.07 88 1011.5
20260507034241 67 144 2.0 2.0 0.00 0.07 0.07 87 1011.9
20260507033740 67 130 2.0 2.0 0.00 0.07 0.07 87 1011.9
20260507033237 67 161 2.0 3.0 0.00 0.07 0.07 88 1011.7
20260507032734 67 160 2.0 2.0 0.00 0.07 0.07 88 1011.5
20260507032230 67 166 1.0 2.0 0.00 0.07 0.07 87 1011.5
20260507031726 67 155 2.0 2.0 0.00 0.07 0.07 87 1011.6
20260507031223 67 147 2.0 3.0 0.00 0.07 0.07 88 1011.2
20260507030720 67 157 0.0 2.0 0.00 0.07 0.07 88 1011.0
20260507030218 67 178 2.0 2.0 0.00 0.07 0.07 87 1011.1
20260507025715 67 134 1.0 2.0 0.00 0.07 0.07 87 1011.1
20260507025212 67 157 2.0 3.0 0.00 0.07 0.07 88 1011.3
20260507024710 67 148 2.0 2.0 0.00 0.07 0.07 88 1010.9
20260507024207 67 145 2.0 2.0 0.00 0.07 0.07 88 1010.8
20260507023702 67 181 0.0 2.0 0.00 0.07 0.07 88 1011.0
20260507023159 67 166 2.0 2.0 0.00 0.07 0.07 88 1011.3
20260507022656 67 151 2.0 2.0 0.00 0.07 0.07 88 1011.1
20260507022152 67 156 2.0 2.0 0.00 0.07 0.07 88 1011.3
20260507021649 67 171 1.0 2.0 0.00 0.07 0.07 88 1011.3
20260507021144 67 160 1.0 3.0 0.00 0.07 0.07 88 1011.3
20260507020643 67 151 2.0 2.0 0.00 0.07 0.07 88 1011.6
20260507020138 67 164 2.0 2.0 0.00 0.07 0.07 88 1011.3
20260507015637 67 164 2.0 2.0 0.00 0.07 0.07 88 1011.6
20260507015134 67 169 2.0 2.0 0.00 0.07 0.07 88 1011.5
20260507014631 67 165 2.0 2.0 0.00 0.07 0.07 87 1011.6
20260507014126 67 168 2.0 2.0 0.00 0.07 0.07 87 1011.6
20260507013623 67 165 2.0 2.0 0.00 0.07 0.07 87 1011.5
20260507013120 67 164 2.0 2.0 0.00 0.07 0.07 87 1011.4
20260507012618 67 152 2.0 2.0 0.00 0.07 0.07 87 1011.6
20260507012113 67 178 2.0 2.0 0.00 0.07 0.07 87 1011.3
20260507011612 67 167 2.0 2.0 0.00 0.07 0.07 87 1011.4
20260507011108 67 170 2.0 2.0 0.00 0.07 0.07 86 1011.5
20260507010603 67 170 2.0 2.0 0.00 0.07 0.07 86 1011.6
20260507010058 67 155 2.0 2.0 0.00 0.07 0.07 86 1011.2
20260507005556 67 141 1.0 2.0 0.00 0.07 0.07 85 1011.0
20260507005052 67 142 1.0 2.0 0.00 0.07 0.07 85 1011.1
20260507004549 67 139 0.0 2.0 0.00 0.07 0.07 86 1011.1
20260507004047 67 129 2.0 3.0 0.00 0.07 0.07 85 1011.4
20260507003542 67 156 0.0 2.0 0.00 0.07 0.07 85 1011.3
20260507003038 68 165 1.0 2.0 0.00 0.07 0.07 85 1011.4
20260507002535 68 169 2.0 2.0 0.00 0.07 0.07 84 1011.3
20260507002030 68 156 2.0 2.0 0.00 0.07 0.07 84 1011.3
20260507001527 68 154 2.0 2.0 0.00 0.07 0.07 84 1011.3
20260507001025 68 151 1.0 3.0 0.00 0.07 0.07 83 1011.3
20260507000520 68 155 1.0 3.0 0.00 0.07 0.07 83 1011.3
20260507000016 69 162 2.0 3.0 0.00 0.07 0.07 82 1011.4
20260506235514 69 161 2.0 2.0 0.00 0.07 0.07 82 1011.2
20260506235009 69 178 1.0 3.0 0.00 0.07 0.07 81 1011.3
20260506234508 69 175 2.0 2.0 0.00 0.07 0.07 81 1011.2
20260506234004 69 171 2.0 3.0 0.00 0.07 0.07 80 1011.2
20260506233501 69 154 2.0 3.0 0.00 0.07 0.07 80 1011.0
20260506232957 70 148 1.0 3.0 0.00 0.07 0.07 79 1010.9
20260506232454 70 144 1.0 2.0 0.00 0.07 0.07 79 1011.3
20260506231949 70 154 2.0 2.0 0.00 0.07 0.07 78 1011.2
20260506231447 70 175 1.0 3.0 0.00 0.07 0.07 77 1011.3
20260506230944 71 156 2.0 2.0 0.00 0.07 0.07 77 1011.0
20260506230440 71 173 2.0 2.0 0.00 0.07 0.07 77 1010.9
20260506225937 71 168 2.0 2.0 0.00 0.07 0.07 76 1011.0
20260506225435 71 174 1.0 2.0 0.00 0.07 0.07 77 1011.2
20260506224931 71 158 1.0 2.0 0.00 0.07 0.07 76 1011.1
20260506224429 70 173 1.0 2.0 0.00 0.07 0.07 77 1011.3
20260506223925 70 162 2.0 2.0 0.00 0.07 0.07 78 1011.3
20260506223420 70 145 0.0 2.0 0.00 0.07 0.07 78 1010.9
20260506222918 70 168 1.0 2.0 0.00 0.07 0.07 77 1011.2
20260506222414 70 154 1.0 2.0 0.00 0.07 0.07 77 1011.2
20260506221911 70 163 2.0 3.0 0.00 0.07 0.07 77 1011.3
20260506221408 70 145 2.0 3.0 0.00 0.07 0.07 77 1011.1
20260506220900 70 134 3.0 3.0 0.00 0.07 0.07 77 1011.1
20260506220355 70 146 3.0 3.0 0.00 0.07 0.07 77 1011.0
20260506215853 71 175 2.0 3.0 0.00 0.07 0.07 77 1010.9
20260506215348 71 166 2.0 2.0 0.00 0.07 0.07 77 1011.0
20260506214844 71 177 1.0 3.0 0.00 0.07 0.07 77 1011.1
20260506214341 71 145 2.0 3.0 0.00 0.07 0.07 77 1010.9
20260506213839 71 163 2.0 3.0 0.00 0.07 0.07 75 1011.2
20260506213336 71 127 2.0 3.0 0.00 0.07 0.07 76 1011.1
20260506212833 71 192 3.0 3.0 0.00 0.07 0.07 75 1011.1
20260506212329 71 118 1.0 3.0 0.00 0.07 0.07 76 1011.3
20260506211825 71 182 1.0 3.0 0.00 0.07 0.07 78 1011.4
20260506211321 71 118 2.0 2.0 0.00 0.07 0.07 77 1011.1
20260506210818 71 114 1.0 3.0 0.00 0.07 0.07 79 1011.2
20260506210315 71 147 0.0 2.0 0.00 0.07 0.07 78 1011.4
20260506205812 71 165 2.0 2.0 0.00 0.07 0.07 80 1011.2
20260506205308 71 145 1.0 3.0 0.00 0.07 0.07 79 1011.0
20260506204804 71 105 2.0 2.0 0.00 0.07 0.07 79 1011.3
20260506204303 71 180 1.0 3.0 0.00 0.07 0.07 80 1011.2
20260506203800 71 158 1.0 3.0 0.00 0.07 0.07 81 1011.3
20260506203257 70 139 1.0 3.0 0.00 0.07 0.07 83 1010.9
20260506202754 69 153 2.0 2.0 0.00 0.07 0.07 84 1010.9
20260506202251 68 153 1.0 1.0 0.00 0.07 0.07 84 1010.9
20260506201747 69 94 0.0 1.0 0.00 0.07 0.07 84 1011.1
20260506201244 69 162 1.0 2.0 0.00 0.07 0.07 83 1011.3
20260506200741 69 152 1.0 2.0 0.00 0.07 0.07 82 1011.1
20260506200237 68 164 2.0 2.0 0.00 0.07 0.07 83 1011.3
20260506195734 68 157 1.0 3.0 0.00 0.07 0.07 84 1011.2
20260506195230 68 155 2.0 3.0 0.00 0.07 0.07 84 1011.5
20260506194728 68 156 2.0 3.0 0.00 0.07 0.07 83 1010.9
20260506194224 68 165 1.0 3.0 0.00 0.07 0.07 84 1010.8
20260506193722 68 160 2.0 2.0 0.00 0.07 0.07 85 1010.6
20260506193219 68 177 2.0 3.0 0.00 0.07 0.07 85 1010.8
20260506192715 68 155 2.0 2.0 0.00 0.07 0.07 86 1010.6
20260506192212 67 155 1.0 2.0 0.00 0.07 0.07 85 1010.9
20260506191709 67 212 1.0 3.0 0.00 0.07 0.07 87 1011.3
20260506191205 67 151 0.0 3.0 0.00 0.07 0.07 87 1011.3
20260506190703 66 139 2.0 3.0 0.00 0.07 0.07 88 1011.7
20260506190159 66 180 1.0 3.0 0.00 0.07 0.07 88 1011.5
20260506185656 65 116 2.0 2.0 0.00 0.07 0.07 89 1011.6
20260506185152 65 146 2.0 3.0 0.00 0.07 0.07 89 1011.8
20260506184650 65 164 2.0 4.0 0.00 0.07 0.07 89 1012.0
20260506184147 65 71 2.0 3.0 0.00 0.07 0.07 90 1011.7
20260506183643 65 139 2.0 3.0 0.00 0.07 0.07 90 1011.8
20260506183139 65 172 1.0 3.0 0.00 0.07 0.07 89 1011.6
20260506182637 65 124 2.0 3.0 0.00 0.07 0.07 89 1011.6
20260506182134 65 73 1.0 3.0 0.00 0.07 0.07 89 1011.8
20260506181632 65 145 0.0 3.0 0.00 0.07 0.07 89 1012.0
20260506181129 65 152 2.0 3.0 0.00 0.07 0.07 89 1012.1
20260506180626 65 145 1.0 3.0 0.00 0.07 0.07 90 1012.7
20260506180122 65 156 2.0 4.0 0.00 0.07 0.07 90 1012.4
20260506175618 65 158 2.0 3.0 0.00 0.07 0.07 88 1012.5
20260506175114 65 111 2.0 3.0 0.00 0.07 0.07 88 1012.3
20260506174614 65 132 0.0 4.0 0.00 0.07 0.07 91 1012.5
20260506174110 65 183 2.0 4.0 0.00 0.07 0.07 91 1012.4
20260506173608 65 141 3.0 3.0 0.00 0.07 0.07 91 1012.4
20260506173104 65 137 2.0 3.0 0.00 0.07 0.07 91 1012.5
20260506172602 64 142 3.0 3.0 0.00 0.07 0.07 92 1012.3
20260506172057 64 146 3.0 4.0 0.00 0.07 0.07 92 1012.3
20260506171555 64 105 1.0 2.0 0.00 0.07 0.07 93 1012.4
20260506171053 64 108 1.0 3.0 0.00 0.07 0.07 93 1012.3
20260506170550 63 119 1.0 2.0 0.00 0.07 0.07 93 1012.4
20260506170047 63 137 2.0 2.0 0.02 0.07 0.07 94 1012.6
20260506165546 63 137 2.0 3.0 0.02 0.07 0.07 94 1012.9
20260506165041 64 138 1.0 4.0 0.00 0.07 0.07 94 1013.2
20260506164539 64 112 2.0 2.0 0.00 0.07 0.07 93 1012.8